This is the latest recevied weather packets stored in our database for station/object VK6DUG. If no packets are shown the sender has not sent any weather packets the latest 10 day(s).
| Time | Temp. | Humidity | Pressure | Rain* | Wind** | Luminosity | Snow |
|---|---|---|---|---|---|---|---|
| 1777594233 | 12.22° C | 78% | 1025.8 hPa | 0 mm | - | 61 W/m² | - |
| 1777593630 | 12.22° C | 78% | 1025.6 hPa | 0 mm | - | 54 W/m² | - |
| 1777593028 | 12.22° C | 78% | 1025.3 hPa | 0 mm | - | 53 W/m² | - |
| 1777592426 | 12.22° C | 78% | 1025.3 hPa | 0 mm | - | 38 W/m² | - |
| 1777591823 | 12.22° C | 78% | 1025 hPa | 0 mm | - | 21 W/m² | - |
| 1777591220 | 12.22° C | 79% | 1024.7 hPa | 0 mm | - | 17 W/m² | - |
| 1777590617 | 12.22° C | 79% | 1024.6 hPa | 0 mm | - | 12 W/m² | - |
| 1777590034 | 12.22° C | 80% | 1024.4 hPa | 0 mm | - | 5 W/m² | - |
| 1777589432 | 12.22° C | 80% | 1024.3 hPa | 0 mm | - | 2 W/m² | - |
| 1777588829 | 12.22° C | 80% | 1024.1 hPa | 0 mm | - | 0 W/m² | - |
| 1777588226 | 12.78° C | 80% | 1024 hPa | 0 mm | - | 0 W/m² | - |
| 1777587624 | 12.78° C | 80% | 1023.9 hPa | 0 mm | - | 0 W/m² | - |
| 1777587021 | 12.78° C | 80% | 1023.8 hPa | 0 mm | - | 0 W/m² | - |
| 1777586418 | 12.78° C | 80% | 1023.8 hPa | 0 mm | - | 0 W/m² | - |
| 1777585835 | 12.78° C | 80% | 1023.7 hPa | 0 mm | - | 0 W/m² | - |
| 1777585229 | 12.78° C | 80% | 1023.5 hPa | 0 mm | - | 0 W/m² | - |
| 1777584626 | 12.78° C | 80% | 1023.4 hPa | 0 mm | - | 0 W/m² | - |
| 1777584023 | 12.78° C | 80% | 1023.2 hPa | 0 mm | - | 0 W/m² | - |
| 1777583419 | 12.78° C | 81% | 1023.2 hPa | 0 mm | - | 0 W/m² | - |
| 1777582835 | 12.78° C | 82% | 1023.1 hPa | 0 mm | - | 0 W/m² | - |
| 1777582232 | 12.78° C | 83% | 1023 hPa | 0 mm | - | 0 W/m² | - |
| 1777581630 | 12.78° C | 84% | 1022.8 hPa | 0 mm | - | 0 W/m² | - |
| 1777581027 | 12.22° C | 85% | 1022.8 hPa | 0 mm | - | 0 W/m² | - |
| 1777580424 | 12.22° C | 86% | 1022.7 hPa | 0 mm | - | 0 W/m² | - |
| 1777579819 | 12.22° C | 88% | 1022.7 hPa | 0 mm | - | 0 W/m² | - |
* Rain latest hour (hover to see other rain measurements)
** Current wind speed in m/s (hover to see current wind gust speed)